Location: ???????
(55.3754°N, 39.3545°E)
Time: 14:40:49
(UTC+00:00)

COSMOS 2455 - Pass Details

Date: 14 April 2026
Orbit: 901 x 907 km, 67.1° (Epoch: 16 May)

Event Time Altitude Azimuth Distance (km) Brightness Sun altitude
Rises 21:03:38 0° 317° (NW) 3,546 6.7 -24.8°
Reaches altitude 10° 21:06:11 10° 313° (NW) 2,601 5.8 -24.9°
Maximum altitude 21:12:03 55° 238° (WSW) 1,084 3.0 -24.9°
Enters shadow 21:12:31 54° 220° (SW) 1,100 2.9 -24.9°
